Find Local Weather

World > North America > United States > Colorado

Manitou Springs, Colorado Regional Weather

Lat: 38.86N, Lon: 104.91W
Wx Zone: COZ085
Warning FLW WEATHER ALERT - (More Info. Click Here) Warning
Feedback
Expires:201806221000;;924804
ASUS45 KBOU 220910
RWRCO 

WEATHER ROUNDUP FOR COLORADO
NATIONAL WEATHER SERVICE DENVER/BOULDER CO
300 AM MDT FRI JUN 22 2018

NOTE: "FAIR" INDICATES FEW OR NO CLOUDS BELOW 12000 FEET WITH NO
SIGNIFICANT WEATHER AND/OR OBSTRUCTIONS TO VISIBILITY.


COZ041-046-047-076>085-087-088-221000-
...PIKES PEAK/PALMER DIVIDE AND SOUTHERN FOOTHILLS...
  
CITY           SKY/WX    TMP DP  RH WIND       PRES   REMARKS
COLO. SPRINGS  CLOUDY    63  51  65 SE5       30.15F                  
A. F. ACADEMY  CLOUDY    61  50  67 S12       30.14F                  
SCHRIEVER AFB  NOT AVBL                                               
CHEYENNE MTN   MOCLDY    59  51  74 S8        30.13F                  
ELLICOTT         N/A    N/A N/A N/A E6        30.11F                  
FALCON         CLOUDY    56  50  79 S3        30.18F                  
FORT CARSON    CLOUDY    63  52  66 CALM      30.11F                  
LIMON          FAIR      54  51  90 E3        30.09S                  
MONUMENT HILL  FAIR      54  50  87 S12       30.16F                  
CANON CITY     MOCLDY    66  55  68 SE5       30.09S                  
WALSENBURG     FAIR      63  54  72 NW8       30.10F                  
TRINIDAD       FAIR      62  57  83 W9        30.06S                  
$$


SKY/WX - Weather  TMP - Temperature  DP - Dewpoint  RH - Relative Humidity
WIND - Wind Direction/Speed PRES - Barometric Pressure